SITRO-AIS 9 (SHCHUKIN)

Last updated on Wed Nov 05 2025 00:03:48 GMT+0000 (Coordinated Universal Time)

1 57201U 23091AM 25308.63719240 .00017348 00000+0 62226-3 0 9993 2 57201 97.5415 9.8525 0009221 146.0670 214.1161 15.28733519130335
UTC large
Height (km)
Speed (km/s)
/
Latitude / Longitude
Inclination (degrees)
Orbital Period (minutes)
Azimuth
Elevation
Range (km)
Doppler Factor

Next 0 passes for location: London (51.5072 / 0.1276)

Sorry there are no passes over London.